星链-1208 (STARLINK-1208 )

导读

STARLINK-1208是美国太空探索技术公司(SpaceX)星链计划中的一颗卫星,于北京时间2020年2月17日8点发射入轨。它属于星链低轨互联网星座的组网卫星,旨在为全球提供高速低延迟的宽带互联网服务,目前已在近地轨道运行,承担着星链星座的通信组网功能。

基本信息
目录编号:
45205
目录名称:
STARLINK-1208
国际标识:
2020-012AD
轨道中心:
EARTH
卫星名称:
星链-1208
卫星全名:
星链-1208 (STARLINK-1208 )
卫星状态:
已陨落 最后检测时间 2025-10-02
发射日期:
2020-02-17 UTC
国别 :
美国 (US)
星等 :
--
轨道信息
数据来源 国际轨道数据
星历时间: 2025-10-02T18:46:14+0800
轨道信息已过期298天
半长轴: 6550.59km
偏心率: 0.0004435
轨道倾角: 53.027°
近地点辐角 232.624°
升交点赤经 314.266°
平近点角 127.440°
近地点: 169.549km
远地点: 175.361km
周期: 87.939分钟
每日圈数: 16.375033
详细信息
固有亮度:
5
最大亮度:
2.5
卫星平台:
Starlink V1.0
覆盖范围:
全球
运营商:
太空探索技术公司
运营商所在国:
美国
制造商(研发单位):
太空探索技术公司
制造商所在国:
美国
使用方式:
暂无
卫星简介
星链(Starlink)计划是由太空探索技术公司(SpaceX)提出的一个巨型低轨卫星互联网星座项目,计划在2019年至2024年间在太空搭建由约1.2万颗卫星组成的“星链”网络,其中1584颗将部署在地球上空550千米处的近地轨道,并从2020年开始工作。该卫星仍在工作。